Weather History for Shelbyville, IN

Change the Weather History Date:

Sunday, February 10, 2013

  Actual Average Record
Temperature  
Mean Temperature 44 °F 30 °F  
Max Temperature 54 °F 38 °F 59 °F (1999)
Min Temperature 34 °F 23 °F -2 °F (2007)
Degree Days  
Heating Degree Days 21 35  
Month to date heating degree days 351 353  
Since 1 July heating degree days 3254 3582  
Cooling Degree Days 0 0  
Month to date cooling degree days 0 0  
Year to date cooling degree days 0 0  
Moisture  
Dew Point 35 °F    
Average Humidity 67    
Maximum Humidity 83    
Minimum Humidity 50    
Precipitation  
Precipitation 0.01 in 0.09 in 0.26 in (2002)
Month to date precipitation 0.20 0.84  
Year to date precipitation 4.08 3.23  
Sea Level Pressure  
Sea Level Pressure 29.92 in    
Wind  
Wind Speed 14 mph (SSE)    
Max Wind Speed 26 mph    
Max Gust Speed 37 mph    
Visibility 10 miles    
Events Rain    
T = Trace of Precipitation, MM = Missing Value Source: NWS Daily Summary

Daily Weather History Graph

Daily Weather History Graph

Search for Another Location

Airport:

Trip Planner

Search our weather history database for the weather conditions in past years. The results will help you decide how hot, cold, wet, or windy it might be!

Date:

Astronomy

Feb. 10, 2013 Rise Set
Actual Time 7:41 AM EST 6:14 PM EST
Civil Twilight 7:13 AM EST 6:42 PM EST
Nautical Twilight 6:41 AM EST 7:13 PM EST
Astronomical Twilight 6:10 AM EST 7:45 PM EST
Moon 7:30 AM EST (2/10) 7:03 PM EST (2/10)
Length of Visible Light 11h 28m
Length of Day
10h 33m
New Moon, 0% of the Moon is Illuminated
Feb 10
New Moon
Feb 17
First Quarter
Feb 25
Full
Mar 4
Last Quarter
Mar 11
New

Hourly Weather History & Observations

Time (EST) Temp. Windchill Dew Point Humidity Pressure Visibility Wind Dir Wind Speed Gust Speed Precip Events Conditions
12:53 AM 35.1 °F 27.4 °F 21.9 °F 59% 30.16 in 10.0 mi ESE 10.4 mph - N/A   Clear
1:53 AM 35.1 °F 27.9 °F 21.9 °F 59% 30.14 in 10.0 mi ESE 9.2 mph - N/A   Clear
2:53 AM 36.0 °F 30.3 °F 23.0 °F 59% 30.14 in 10.0 mi SSE 6.9 mph - N/A   Partly Cloudy
3:53 AM 36.0 °F 31.1 °F 25.0 °F 64% 30.14 in 10.0 mi SSE 5.8 mph - N/A   Overcast
4:53 AM 36.0 °F 30.3 °F 25.0 °F 64% 30.12 in 10.0 mi SE 6.9 mph - 0.00 in   Overcast
5:53 AM 36.0 °F 30.3 °F 24.1 °F 62% 30.09 in 10.0 mi SE 6.9 mph - N/A   Clear
6:53 AM 37.0 °F 30.4 °F 24.1 °F 59% 30.09 in 10.0 mi SE 9.2 mph - N/A   Clear
7:53 AM 37.9 °F 30.0 °F 25.0 °F 60% 30.07 in 10.0 mi SE 12.7 mph - N/A   Overcast
8:53 AM 39.9 °F 32.1 °F 27.0 °F 60% 30.07 in 10.0 mi SSE 13.8 mph - N/A   Overcast
9:53 AM 39.9 °F 32.9 °F 30.9 °F 70% 30.06 in 10.0 mi SSE 11.5 mph - N/A   Overcast
10:53 AM 43.0 °F 36.8 °F 34.0 °F 71% 30.01 in 10.0 mi SSE 11.5 mph - 0.00 in   Overcast
11:53 AM 48.9 °F - 36.0 °F 61% 29.95 in 10.0 mi SSE 17.3 mph - N/A   Clear
12:53 PM 54.0 °F - 35.1 °F 49% 29.91 in 10.0 mi South 16.1 mph 24.2 mph N/A   Clear
1:53 PM 52.0 °F - 36.0 °F 54% 29.91 in 10.0 mi South 13.8 mph - 0.00 in Rain Light Rain
2:53 PM 52.0 °F - 36.0 °F 54% 29.87 in 10.0 mi South 15.0 mph - 0.00 in Rain Light Rain
3:53 PM 48.9 °F - 39.0 °F 69% 29.81 in 10.0 mi SSE 16.1 mph - 0.01 in   Overcast
4:53 PM 50.0 °F - 41.0 °F 71% 29.80 in 10.0 mi South 15.0 mph 25.3 mph N/A   Overcast
5:53 PM 50.0 °F - 43.0 °F 77% 29.76 in 10.0 mi South 19.6 mph 27.6 mph N/A   Overcast
6:06 PM 50.0 °F - 42.8 °F 76% 29.75 in 10.0 mi South 24.2 mph 31.1 mph N/A   Overcast
6:53 PM 51.1 °F - 44.1 °F 77% 29.76 in 10.0 mi South 23.0 mph 35.7 mph N/A   Overcast
7:53 PM 52.0 °F - 45.0 °F 77% 29.75 in 10.0 mi South 21.9 mph 33.4 mph N/A   Overcast
8:53 PM 51.1 °F - 46.0 °F 83% 29.75 in 10.0 mi South 19.6 mph - 0.00 in   Overcast
9:53 PM 51.1 °F - 46.0 °F 83% 29.74 in 10.0 mi South 17.3 mph - N/A   Overcast
10:50 PM 50.0 °F - 46.4 °F 87% 29.73 in 5.0 mi South 17.3 mph - 0.00 in   Overcast
10:53 PM 51.1 °F - 46.9 °F 86% 29.73 in 5.0 mi South 17.3 mph - 0.00 in   Overcast
11:53 PM 51.1 °F - 48.0 °F 89% 29.72 in 10.0 mi South 19.6 mph 27.6 mph N/A   Overcast